Hourly Weather Jaen

Today, 11 July, Saturday

Time Temperature Precipitation Wind Pressure Humidity
00:00 +26°C° 0 mm 1 mps 712 mmHg 36%
01:00 +25°C° 0 mm 1 mps 711 mmHg 41%
02:00 +24°C° 0 mm 1 mps 711 mmHg 46%
03:00 +24°C° 0 mm 1 mps 711 mmHg 51%
04:00 +24°C° 0 mm 1 mps 711 mmHg 52%
05:00 +24°C° 0 mm 1 mps 712 mmHg 52%
06:00 +26°C° 0 mm 1 mps 712 mmHg 50%
07:00 +28°C° 0 mm 1 mps 712 mmHg 44%
08:00 +30°C° 0 mm 1 mps 713 mmHg 37%
09:00 +32°C° 0 mm 2 mps 713 mmHg 31%
10:00 +35°C° 0 mm 2 mps 713 mmHg 26%
11:00 +37°C° 0 mm 2 mps 713 mmHg 21%
12:00 +39°C° 0 mm 2 mps 714 mmHg 16%
13:00 +40°C° 0 mm 3 mps 713 mmHg 15%
14:00 +42°C° 0 mm 3 mps 713 mmHg 14%
15:00 +42°C° 0 mm 4 mps 713 mmHg 13%
16:00 +42°C° 0 mm 4 mps 712 mmHg 15%
17:00 +41°C° 0 mm 4 mps 712 mmHg 16%
18:00 +39°C° 0 mm 3 mps 712 mmHg 18%
19:00 +36°C° 0 mm 3 mps 712 mmHg 26%
20:00 +33°C° 0 mm 3 mps 712 mmHg 33%
21:00 +29°C° 0 mm 3 mps 712 mmHg 41%
22:00 +28°C° 0 mm 3 mps 712 mmHg 44%
23:00 +27°C° 0 mm 2 mps 713 mmHg 48%

Tomorrow, 12 July, Sunday

Time Temperature Precipitation Wind Pressure Humidity
00:00 +26°C° 0 mm 2 mps 713 mmHg 52%
01:00 +26°C° 0 mm 2 mps 713 mmHg 49%
02:00 +26°C° 0 mm 3 mps 712 mmHg 47%
03:00 +26°C° 0 mm 3 mps 712 mmHg 44%
04:00 +26°C° 0 mm 3 mps 712 mmHg 45%
05:00 +25°C° 0 mm 2 mps 712 mmHg 46%
06:00 +25°C° 0 mm 1 mps 712 mmHg 47%
07:00 +27°C° 0.3 mm 2 mps 712 mmHg 43%
08:00 +28°C° 0.3 mm 2 mps 713 mmHg 40%
09:00 +30°C° 0.3 mm 2 mps 714 mmHg 37%
10:00 +30°C° 0.8 mm 2 mps 714 mmHg 36%
11:00 +31°C° 0.8 mm 2 mps 714 mmHg 35%
12:00 +33°C° 0.8 mm 3 mps 714 mmHg 33%
13:00 +34°C° 0.4 mm 3 mps 714 mmHg 31%
14:00 +35°C° 0.4 mm 3 mps 713 mmHg 28%
15:00 +37°C° 0.4 mm 3 mps 713 mmHg 25%
16:00 +36°C° 0.1 mm 3 mps 713 mmHg 27%
17:00 +36°C° 0.1 mm 3 mps 713 mmHg 28%
18:00 +36°C° 0.1 mm 3 mps 713 mmHg 29%
19:00 +34°C° 0 mm 3 mps 713 mmHg 33%
20:00 +31°C° 0 mm 3 mps 714 mmHg 38%
21:00 +29°C° 0 mm 3 mps 714 mmHg 43%
22:00 +28°C° 0 mm 2 mps 714 mmHg 46%
23:00 +26°C° 0 mm 2 mps 714 mmHg 49%

Day after tomorrow, 13 July, Monday

Time Temperature Precipitation Wind Pressure Humidity
00:00 +25°C° 0 mm 2 mps 714 mmHg 52%
01:00 +25°C° 0 mm 1 mps 713 mmHg 53%
02:00 +24°C° 0 mm 1 mps 713 mmHg 55%
03:00 +24°C° 0 mm 1 mps 713 mmHg 57%
04:00 +24°C° 0 mm 1 mps 713 mmHg 57%
05:00 +24°C° 0 mm 1 mps 713 mmHg 56%
06:00 +23°C° 0 mm 0 mps 713 mmHg 55%
07:00 +27°C° 0 mm 1 mps 714 mmHg 49%
08:00 +29°C° 0 mm 1 mps 714 mmHg 43%
09:00 +31°C° 0 mm 1 mps 714 mmHg 37%
10:00 +32°C° 0 mm 1 mps 714 mmHg 33%
11:00 +35°C° 0 mm 2 mps 714 mmHg 28%
12:00 +37°C° 0 mm 2 mps 714 mmHg 24%
13:00 +37°C° 0 mm 2 mps 714 mmHg 22%
14:00 +38°C° 0 mm 2 mps 713 mmHg 20%
15:00 +39°C° 0 mm 3 mps 713 mmHg 18%
16:00 +39°C° 0 mm 2 mps 713 mmHg 18%
17:00 +38°C° 0 mm 2 mps 713 mmHg 18%
18:00 +38°C° 0 mm 2 mps 712 mmHg 18%
19:00 +36°C° 0 mm 2 mps 713 mmHg 22%
20:00 +34°C° 0 mm 2 mps 713 mmHg 26%
21:00 +31°C° 0 mm 2 mps 713 mmHg 31%
22:00 +30°C° 0 mm 2 mps 713 mmHg 35%
23:00 +29°C° 0 mm 2 mps 713 mmHg 39%

14 July, Tuesday

Time Temperature Precipitation Wind Pressure Humidity
00:00 +27°C° 0 mm 2 mps 713 mmHg 44%
01:00 +27°C° 0 mm 2 mps 712 mmHg 47%
02:00 +26°C° 0 mm 1 mps 712 mmHg 49%
03:00 +25°C° 0 mm 1 mps 712 mmHg 52%
04:00 +25°C° 0 mm 1 mps 712 mmHg 52%
05:00 +25°C° 0 mm 1 mps 712 mmHg 53%
06:00 +25°C° 0 mm 1 mps 712 mmHg 53%
07:00 +28°C° 0 mm 1 mps 712 mmHg 46%
08:00 +30°C° 0 mm 1 mps 713 mmHg 40%
09:00 +32°C° 0 mm 1 mps 713 mmHg 33%
10:00 +33°C° 0 mm 1 mps 713 mmHg 30%
11:00 +36°C° 0 mm 2 mps 713 mmHg 26%
12:00 +38°C° 0 mm 3 mps 713 mmHg 22%
13:00 +38°C° 0 mm 2 mps 712 mmHg 22%
14:00 +38°C° 0 mm 2 mps 712 mmHg 21%
15:00 +38°C° 0 mm 2 mps 712 mmHg 20%
16:00 +38°C° 0 mm 2 mps 711 mmHg 20%
17:00 +37°C° 0 mm 2 mps 711 mmHg 21%
18:00 +37°C° 0 mm 2 mps 711 mmHg 21%
19:00 +35°C° 0 mm 2 mps 711 mmHg 24%
20:00 +32°C° 0 mm 2 mps 711 mmHg 27%
21:00 +30°C° 0 mm 1 mps 712 mmHg 30%
22:00 +29°C° 0 mm 2 mps 712 mmHg 35%
23:00 +28°C° 0 mm 2 mps 712 mmHg 39%

15 July, Wednesday

Time Temperature Precipitation Wind Pressure Humidity
00:00 +27°C° 0 mm 2 mps 712 mmHg 43%
01:00 +26°C° 0 mm 1 mps 712 mmHg 46%
02:00 +25°C° 0 mm 1 mps 712 mmHg 49%
03:00 +25°C° 0 mm 1 mps 711 mmHg 52%
04:00 +25°C° 0 mm 1 mps 711 mmHg 52%
05:00 +25°C° 0 mm 1 mps 712 mmHg 52%
06:00 +25°C° 0 mm 1 mps 712 mmHg 52%
07:00 +28°C° 0 mm 2 mps 712 mmHg 45%
08:00 +30°C° 0 mm 2 mps 713 mmHg 38%
09:00 +32°C° 0 mm 2 mps 713 mmHg 31%
10:00 +35°C° 0 mm 2 mps 713 mmHg 27%
11:00 +37°C° 0 mm 2 mps 713 mmHg 23%
12:00 +39°C° 0 mm 2 mps 713 mmHg 19%
13:00 +39°C° 0 mm 2 mps 713 mmHg 18%
14:00 +40°C° 0 mm 2 mps 713 mmHg 17%
15:00 +41°C° 0 mm 2 mps 713 mmHg 15%
16:00 +40°C° 0 mm 2 mps 713 mmHg 16%
17:00 +40°C° 0 mm 3 mps 713 mmHg 17%
18:00 +39°C° 0 mm 3 mps 713 mmHg 18%
19:00 +37°C° 0 mm 2 mps 713 mmHg 24%
20:00 +34°C° 0 mm 2 mps 713 mmHg 29%
21:00 +31°C° 0 mm 2 mps 714 mmHg 35%
22:00 +29°C° 0 mm 2 mps 714 mmHg 39%
23:00 +28°C° 0 mm 2 mps 714 mmHg 44%

16 July, Thursday

Time Temperature Precipitation Wind Pressure Humidity
00:00 +27°C° 0 mm 2 mps 715 mmHg 49%
01:00 +26°C° 0 mm 2 mps 714 mmHg 52%
02:00 +25°C° 0 mm 2 mps 714 mmHg 56%
03:00 +25°C° 0 mm 1 mps 714 mmHg 59%
04:00 +25°C° 0 mm 1 mps 714 mmHg 58%
05:00 +25°C° 0 mm 2 mps 714 mmHg 56%
06:00 +25°C° 0 mm 2 mps 714 mmHg 55%
07:00 +28°C° 0 mm 2 mps 715 mmHg 46%
08:00 +30°C° 0 mm 2 mps 715 mmHg 38%
09:00 +34°C° 0 mm 2 mps 716 mmHg 30%
10:00 +36°C° 0 mm 2 mps 716 mmHg 27%
11:00 +37°C° 0 mm 2 mps 715 mmHg 24%
12:00 +39°C° 0 mm 2 mps 715 mmHg 21%
13:00 +40°C° 0 mm 2 mps 715 mmHg 19%
14:00 +42°C° 0 mm 3 mps 715 mmHg 18%
15:00 +42°C° 0 mm 3 mps 714 mmHg 17%
16:00 +42°C° 0 mm 3 mps 714 mmHg 18%
17:00 +42°C° 0 mm 4 mps 714 mmHg 18%
18:00 +41°C° 0 mm 4 mps 713 mmHg 19%
19:00 +38°C° 0 mm 3 mps 714 mmHg 23%
20:00 +35°C° 0 mm 3 mps 714 mmHg 28%
21:00 +31°C° 0 mm 2 mps 714 mmHg 32%
22:00 +30°C° 0 mm 2 mps 714 mmHg 35%
23:00 +29°C° 0 mm 2 mps 713 mmHg 39%
Show more